Wind_Speed
65 65 66 66 66 66 65 64 64 64 63 62 61 60 58 56 56 56 55 54 53 51 50 50 50 48 47 46 43 43 43 42 42 41 41 40 40 40 40 40 40 39
64 65 65 65 66 65 64 64 63 62 62 62 61 60 59 58 58 58 56 55 53 52 51 51 50 48 47 45 44 44 44 43 42 42 41 41 40 41 41 41 40 39
64 64 64 64 64 63 63 62 62 62 62 62 61 60 59 59 59 58 57 55 54 52 51 50 49 48 46 46 46 45 44 43 43 42 41 41 41 42 42 41 40 39
64 64 63 62 62 62 62 62 62 63 62 61 60 59 59 59 59 58 56 55 54 52 51 50 49 47 47 47 47 46 44 44 43 42 42 41 42 42 42 41 40 39
64 64 63 61 61 61 62 62 62 63 63 61 60 59 58 58 58 57 56 55 54 52 51 50 49 48 48 48 47 46 45 44 43 43 42 42 42 42 42 41 40 39
65 65 64 63 63 63 63 63 63 63 63 62 61 60 59 58 58 58 57 55 54 53 52 50 49 49 48 48 48 47 46 45 44 43 43 43 43 42 42 41 39 38
65 65 66 66 66 67 67 67 67 67 65 64 63 61 59 59 59 58 57 57 56 54 52 51 50 49 49 49 48 47 46 45 44 44 43 43 43 42 42 40 39 38
65 65 67 68 68 69 70 71 71 70 68 66 64 61 59 59 59 59 59 58 57 55 53 51 50 50 50 49 48 47 46 46 45 45 44 44 43 43 42 40 38 38
63 63 65 66 67 67 68 69 69 69 68 66 63 62 61 61 61 61 60 59 57 55 53 51 51 50 50 48 48 47 47 47 46 45 45 44 43 43 41 40 39 38
61 61 61 61 61 62 62 62 62 63 63 63 63 63 63 63 62 61 60 59 57 55 53 51 50 51 50 49 48 48 48 47 46 46 45 44 44 43 41 39 39 38
62 62 62 62 61 61 61 61 62 62 64 64 64 64 64 63 62 60 60 58 56 54 52 50 50 51 50 50 50 49 49 48 47 46 45 44 44 42 41 39 39 38
65 65 65 65 65 65 65 65 65 65 66 65 65 64 63 62 61 60 60 58 56 55 52 51 51 51 51 51 50 50 49 48 47 46 46 45 44 42 41 40 38 37
69 68 67 67 67 67 66 66 66 65 65 64 64 63 62 61 61 60 60 58 57 55 53 52 52 51 51 52 50 49 48 48 47 47 46 45 44 42 41 39 38 37
71 71 70 68 67 67 66 66 65 64 63 63 62 61 61 60 60 60 60 58 57 56 54 53 53 52 52 52 50 49 49 48 48 47 46 45 44 42 41 39 38 37
73 73 73 72 70 68 67 66 65 64 62 61 60 60 59 59 60 60 60 59 58 57 56 55 54 54 53 52 51 50 50 49 48 47 46 45 44 42 41 39 38 36
73 74 75 75 74 72 70 69 67 66 64 62 60 59 58 58 58 59 59 59 59 58 57 57 56 55 54 52 51 51 50 50 49 47 46 45 44 42 41 40 38 36
73 73 75 76 77 76 74 71 69 68 66 64 62 61 60 59 58 58 58 59 59 58 58 58 57 56 55 53 52 51 51 50 49 48 47 45 44 43 41 40 38 36
74 73 73 74 76 77 77 75 73 70 68 66 65 63 62 62 61 60 59 58 58 58 58 58 58 56 54 53 53 52 51 50 49 48 46 45 44 43 42 40 38 36
73 74 74 74 74 75 76 76 76 74 72 69 67 66 65 64 62 61 60 59 58 58 58 58 57 56 54 54 54 53 52 50 49 48 47 45 45 43 42 40 38 36
72 73 74 75 75 75 76 76 76 75 73 71 69 67 65 64 63 62 61 60 59 59 59 58 57 56 55 55 55 53 52 51 49 48 47 46 45 44 42 40 38 37
71 71 72 73 74 75 75 75 75 74 73 71 69 67 65 64 63 62 62 62 61 60 60 59 58 58 57 56 55 53 52 51 50 48 47 47 46 44 43 41 39 37
73 72 71 71 71 71 71 70 70 71 70 70 69 66 65 64 63 63 63 63 63 62 61 60 60 59 59 57 56 54 53 51 50 49 48 47 46 45 43 41 39 38
74 73 72 71 70 69 69 69 68 68 69 69 68 67 65 65 64 64 64 64 63 63 62 62 62 61 60 58 56 55 53 52 50 49 49 48 47 45 43 41 40 38
74 74 74 74 72 70 69 68 68 68 68 68 68 67 66 65 65 64 64 64 63 63 63 63 62 61 60 58 56 54 53 52 51 50 50 49 47 46 44 42 40 38
75 74 75 75 75 74 73 71 69 68 68 67 67 66 66 65 65 64 64 64 63 63 63 63 62 61 59 57 56 54 53 52 51 50 50 49 48 46 45 43 41 39
74 74 75 75 76 76 76 75 73 71 69 68 67 66 65 65 64 63 63 63 63 63 63 63 61 60 58 57 55 54 53 52 52 51 50 49 48 47 46 44 41 39
Wind_Direction
235 234 234 233 232 231 230 228 228 228 230 231 233 235 236 236 237 237 238 239 240 241 243 245 246 248 251 253 254 255 256 259 261 263 265 267 270 273 275 278 282 285
232 232 231 231 230 229 228 227 227 228 229 230 232 233 235 235 236 237 238 239 240 241 242 244 246 248 251 253 254 255 256 258 260 262 265 267 270 273 275 278 281 285
231 231 230 229 228 227 226 226 226 227 229 230 231 232 233 234 236 237 237 238 239 241 242 244 246 248 250 252 253 254 256 258 260 262 264 267 270 272 274 278 282 284
231 230 229 228 227 226 226 225 226 227 229 230 231 231 232 234 235 236 238 239 240 242 243 245 246 248 249 251 252 253 255 257 259 261 264 267 269 271 274 278 281 284
230 229 228 226 225 225 225 225 225 226 227 228 229 230 231 233 234 236 237 239 240 242 243 244 245 247 248 249 251 252 254 256 258 261 264 266 268 271 274 278 280 283
228 229 228 226 224 223 224 224 225 226 226 226 227 228 230 232 233 235 237 239 240 241 242 243 244 245 247 248 250 251 253 256 258 260 263 265 268 270 273 277 280 283
227 228 228 227 225 223 223 223 223 224 225 225 226 227 230 232 234 236 237 239 240 240 241 242 243 244 246 247 249 251 253 256 258 260 262 264 267 270 272 276 279 281
227 227 228 228 228 227 225 225 224 224 224 225 225 228 231 234 236 236 237 238 239 240 240 241 242 244 245 247 249 251 253 255 257 259 261 264 266 269 272 275 278 279
226 226 227 228 229 229 229 229 228 227 227 227 228 230 233 236 237 237 238 238 238 239 239 240 241 243 245 247 249 251 253 255 257 259 261 263 266 268 271 274 277 277
226 225 225 225 226 227 227 228 229 229 230 230 231 233 235 236 237 237 238 238 238 238 239 239 241 244 245 247 249 251 252 254 256 258 260 263 265 268 270 273 275 276
226 225 225 225 225 226 226 227 228 229 231 232 233 234 235 236 237 237 238 239 239 239 239 240 242 244 245 247 248 250 252 254 256 258 260 262 264 267 270 272 273 275
226 225 226 226 226 227 228 229 229 230 231 232 233 234 235 236 236 237 238 239 239 239 239 240 242 244 245 247 248 250 252 254 256 257 259 261 264 266 268 270 271 273
226 226 226 227 227 227 228 229 230 230 231 232 233 234 235 236 237 238 238 239 239 239 240 241 242 244 245 247 249 251 252 254 255 257 259 261 263 265 267 268 269 271
227 226 226 226 227 227 228 228 229 230 231 232 233 234 235 236 237 238 239 239 239 240 241 242 243 244 246 247 249 251 252 253 255 256 258 260 262 264 265 266 267 269
228 227 226 226 227 227 227 228 228 229 230 231 232 233 234 235 236 237 239 240 240 240 241 243 244 245 246 247 249 250 251 252 254 255 257 259 260 262 263 264 265 267
229 229 228 227 227 227 227 227 227 228 229 230 231 232 233 234 236 237 238 239 240 241 242 243 244 245 246 247 248 249 250 251 253 254 256 257 258 260 261 261 263 265
230 230 230 229 228 228 228 228 228 229 230 231 231 232 233 234 235 236 238 239 240 241 242 243 244 245 246 247 247 248 250 251 252 253 254 255 256 258 259 260 261 262
230 230 231 231 230 230 229 229 229 230 231 232 233 233 233 233 234 236 237 239 240 241 241 242 244 245 245 246 247 248 249 249 251 252 253 253 255 256 257 258 259 259
229 230 231 232 232 232 232 231 231 232 232 233 234 234 234 234 235 236 237 239 240 240 241 242 243 244 245 245 246 246 248 248 249 250 251 252 253 254 255 256 257 257
228 229 230 231 233 234 234 234 234 234 234 234 234 234 234 234 235 236 237 239 240 241 241 242 242 243 243 244 245 245 246 247 247 248 249 250 251 252 253 254 254 254
228 229 229 230 231 232 234 235 235 235 235 234 234 233 234 235 235 236 237 239 240 240 241 241 241 242 242 243 244 244 245 245 246 246 247 249 250 251 251 252 251 251
228 228 229 230 230 231 231 232 233 233 233 233 232 232 233 234 235 236 237 238 239 239 240 240 240 240 241 242 243 243 243 244 244 245 246 247 248 249 250 249 249 249
225 227 228 229 230 230 231 231 231 231 232 232 232 232 232 233 234 235 236 237 238 239 239 239 239 239 240 241 241 241 241 241 242 243 244 246 247 248 248 247 246 247
225 226 226 227 228 229 229 230 230 230 230 230 231 231 231 232 233 234 234 235 237 237 238 238 238 238 238 239 239 239 239 239 240 242 243 245 246 246 246 245 244 245
227 226 227 227 228 228 228 229 229 230 230 230 230 229 229 230 231 232 233 234 235 236 236 237 237 237 237 237 237 237 237 238 239 241 243 244 244 244 244 243 243 243
228 227 226 227 228 228 228 229 229 229 230 230 231 231 230 230 231 231 232 234 235 235 236 236 236 236 236 236 236 236 236 237 239 240 242 242 243 242 241 241 242 242
Height
5687 5691 5694 5697 5701 5705 5709 5712 5716 5719 5723 5728 5732 5736 5739 5741 5742 5743 5745 5748 5750 5753 5755 5757 5759 5761 5763 5765 5766 5767 5767 5768 5768 5769 5770 5770 5770 5770 5769 5769 5768 5768
5679 5682 5686 5689 5693 5697 5702 5706 5710 5714 5717 5722 5726 5729 5732 5734 5735 5737 5740 5742 5744 5747 5749 5751 5753 5756 5758 5760 5761 5761 5762 5763 5763 5764 5765 5765 5765 5765 5764 5764 5764 5764
5672 5675 5679 5683 5687 5691 5696 5700 5704 5708 5711 5715 5718 5722 5725 5727 5729 5731 5733 5736 5738 5740 5743 5745 5748 5751 5753 5754 5755 5756 5757 5758 5758 5759 5760 5760 5760 5760 5759 5759 5759 5759
5666 5670 5674 5677 5681 5685 5689 5693 5698 5701 5705 5708 5712 5715 5718 5720 5722 5724 5727 5730 5732 5735 5738 5740 5743 5745 5747 5748 5749 5750 5751 5752 5753 5754 5755 5755 5755 5755 5755 5755 5755 5754
5659 5663 5667 5671 5675 5678 5682 5687 5691 5694 5698 5701 5705 5708 5710 5713 5715 5718 5721 5724 5726 5729 5732 5735 5737 5740 5741 5742 5743 5744 5746 5747 5748 5749 5750 5750 5750 5750 5750 5750 5750 5750
5653 5656 5660 5664 5667 5671 5675 5680 5683 5687 5690 5694 5697 5700 5703 5705 5708 5711 5714 5717 5720 5723 5726 5729 5731 5734 5735 5736 5738 5739 5740 5742 5743 5744 5745 5745 5745 5745 5746 5746 5746 5746
5646 5649 5653 5657 5660 5664 5668 5671 5675 5678 5682 5685 5689 5692 5695 5698 5701 5704 5708 5711 5714 5717 5720 5723 5725 5728 5729 5730 5732 5734 5735 5737 5738 5739 5739 5740 5740 5741 5741 5741 5741 5741
5638 5642 5645 5649 5653 5657 5661 5664 5668 5671 5675 5678 5683 5686 5689 5692 5695 5698 5701 5704 5708 5711 5715 5717 5719 5721 5723 5725 5727 5728 5730 5731 5733 5734 5734 5735 5736 5736 5736 5737 5737 5737
5630 5634 5638 5641 5646 5650 5655 5659 5662 5666 5669 5673 5677 5680 5683 5686 5689 5692 5695 5698 5702 5705 5708 5711 5714 5716 5717 5720 5722 5723 5724 5726 5727 5728 5729 5730 5731 5731 5732 5732 5733 5733
5624 5628 5631 5635 5639 5643 5648 5652 5656 5660 5664 5668 5671 5674 5677 5680 5683 5686 5689 5692 5696 5699 5703 5706 5708 5710 5712 5714 5716 5717 5719 5720 5722 5723 5724 5725 5726 5726 5727 5728 5728 5728
5618 5621 5625 5629 5633 5636 5641 5645 5649 5653 5657 5661 5664 5668 5671 5674 5677 5681 5683 5686 5690 5694 5697 5701 5703 5704 5706 5708 5709 5711 5713 5715 5717 5718 5719 5720 5721 5721 5722 5723 5723 5724
5612 5616 5619 5622 5626 5630 5634 5638 5642 5646 5650 5654 5657 5661 5664 5667 5671 5674 5677 5680 5684 5688 5691 5694 5696 5698 5700 5702 5703 5705 5708 5710 5711 5713 5714 5715 5716 5717 5718 5718 5719 5719
5606 5610 5613 5616 5620 5624 5627 5631 5635 5640 5643 5647 5651 5654 5658 5661 5665 5668 5671 5675 5678 5682 5685 5688 5690 5692 5694 5695 5698 5700 5703 5704 5706 5707 5709 5710 5711 5712 5713 5714 5714 5715
5598 5602 5606 5610 5614 5617 5621 5625 5629 5633 5636 5640 5644 5648 5651 5655 5658 5661 5665 5669 5672 5675 5678 5681 5683 5686 5687 5690 5693 5695 5697 5699 5700 5702 5703 5705 5706 5707 5708 5709 5710 5710
5590 5594 5598 5603 5607 5611 5615 5618 5622 5626 5629 5633 5637 5641 5645 5648 5651 5655 5658 5662 5665 5668 5672 5674 5677 5680 5682 5685 5687 5689 5691 5693 5695 5696 5698 5700 5701 5702 5703 5704 5705 5706
5582 5586 5591 5595 5599 5603 5607 5611 5615 5619 5622 5626 5630 5634 5637 5641 5645 5648 5652 5655 5659 5662 5665 5668 5671 5673 5676 5679 5681 5683 5685 5687 5689 5691 5693 5694 5695 5697 5698 5699 5701 5701
5574 5579 5583 5587 5592 5596 5600 5604 5607 5611 5615 5619 5623 5627 5630 5634 5638 5642 5645 5649 5652 5656 5659 5662 5665 5667 5670 5673 5675 5677 5679 5681 5684 5685 5687 5689 5690 5691 5693 5694 5696 5697
5566 5571 5575 5580 5584 5588 5592 5596 5600 5604 5608 5612 5615 5619 5623 5627 5631 5635 5639 5642 5646 5649 5652 5655 5658 5661 5664 5667 5669 5671 5673 5676 5678 5680 5682 5683 5685 5686 5688 5689 5691 5692
5557 5562 5567 5571 5576 5580 5584 5589 5593 5597 5600 5604 5608 5612 5616 5620 5624 5628 5632 5635 5639 5642 5646 5649 5652 5655 5658 5660 5662 5665 5667 5670 5672 5674 5676 5678 5679 5681 5683 5684 5686 5687
5548 5554 5558 5563 5568 5572 5577 5581 5585 5589 5593 5597 5601 5605 5609 5613 5617 5621 5625 5628 5632 5635 5639 5642 5645 5648 5651 5653 5656 5659 5661 5664 5666 5668 5670 5672 5674 5676 5677 5679 5681 5682
5541 5546 5550 5555 5560 5564 5569 5573 5577 5581 5585 5589 5594 5598 5602 5606 5610 5614 5617 5621 5624 5628 5631 5635 5638 5641 5643 5646 5649 5653 5655 5658 5660 5662 5664 5666 5668 5670 5672 5674 5676 5677
5532 5537 5543 5548 5553 5557 5561 5565 5569 5573 5578 5582 5587 5591 5595 5599 5603 5606 5610 5613 5617 5621 5624 5628 5630 5633 5637 5640 5643 5646 5649 5652 5654 5656 5659 5661 5663 5665 5667 5669 5671 5672
5523 5528 5534 5539 5545 5550 5554 5558 5562 5566 5571 5575 5580 5584 5588 5592 5596 5599 5603 5606 5610 5614 5617 5620 5623 5627 5630 5633 5637 5640 5643 5645 5648 5650 5652 5655 5657 5659 5662 5664 5666 5667
5515 5520 5525 5530 5536 5541 5546 5551 5555 5559 5564 5568 5572 5577 5581 5585 5588 5592 5596 5599 5603 5607 5610 5613 5616 5620 5623 5626 5630 5633 5636 5639 5641 5644 5647 5649 5651 5654 5656 5658 5660 5662
5508 5513 5517 5522 5526 5531 5536 5542 5547 5552 5557 5561 5565 5569 5573 5577 5581 5585 5588 5592 5595 5598 5602 5605 5609 5612 5616 5620 5623 5627 5630 5632 5635 5638 5641 5643 5645 5648 5650 5652 5654 5656
5499 5505 5510 5514 5518 5522 5527 5532 5538 5543 5548 5553 5558 5562 5565 5569 5574 5578 5581 5585 5588 5591 5595 5598 5602 5606 5609 5613 5617 5620 5623 5626 5629 5632 5635 5637 5639 5642 5644 5646 5649 5651